Torna al catalogo

CZ-6A DEB

AttivoPO
NORAD 54933·DEBRIS·🇨🇳 China

Lanciato Nov 11, 2022 da Taiyuan Satellite Launch Center

Loading…

Prossimi Passaggi (prossime 24 ore)

TLE

AggiornatoSource: Space-Track

Epoca: Sep 14, 2026, 08:30 UTC

1 54933U 22151RW  26257.35435182  .00008012  00000-0  12020-2 0  9996
2 54933  99.0902  42.0572 0074108  55.4960 305.3214 14.73026965203022

Traccia CZ-6A DEB in tempo reale con AllMySat

Download on the App Store